Location: Grasslands National Park East Block
(49.0708°N, 106.5295°W)
Time: 12:34:20
(UTC-06:00)

SO-50 - Visible Passes

Search period start: 15 September 2019 00:00
Search period end: 25 September 2019 00:00
Orbit: 589 x 697 km, 64.6° (Epoch: 14 September)

Date Brightness Start Highest point End Pass type
(mag) Time Alt. Az. Time Alt. Az. Time Alt. Az.
15 Sep ? 20:19:28 10° NW 20:24:20 84° SW 20:28:51 11° SE visible
15 Sep ? 22:01:42 10° W 22:04:00 14° WSW 22:06:18 10° SW visible
16 Sep ? 20:44:46 10° NW 20:49:16 40° WSW 20:53:37 10° S visible
17 Sep ? 21:10:37 10° WNW 21:13:58 19° WSW 21:17:16 10° SSW visible
18 Sep ? 19:54:22 10° NW 19:59:05 56° WSW 20:03:38 10° SSE visible
19 Sep ? 20:19:54 10° WNW 20:23:54 27° WSW 20:27:47 10° S visible
20 Sep ? 20:46:33 10° W 20:48:28 12° WSW 20:50:22 10° SW visible
21 Sep ? 19:29:21 10° NW 19:33:46 37° WSW 19:38:02 10° S visible
22 Sep ? 19:55:17 10° WNW 19:58:26 18° WSW 20:01:31 10° SSW visible
